Location: Pordenone
(45.9640°N, 12.6580°E)
Time: 03:45:03
(UTC+02:00)

ISS - Pass Details

Date: 17 May 2021
Orbit: 417 x 422 km, 51.6° (Epoch: 14 June)

Event Time Altitude Azimuth Distance (km) Brightness Sun altitude
Rises 22:02:58 0° 246° (WSW) 2,356 0.3 -12.5°
Reaches altitude 10° 22:05:03 10° 248° (WSW) 1,495 -0.7 -12.8°
Maximum altitude 22:08:24 75° 334° (NNW) 438 -3.6 -13.2°
Drops below altitude 10° 22:11:47 10° 60° (ENE) 1,505 -1.1 -13.6°
Sets 22:13:54 0° 63° (ENE) 2,372 -0.1 -13.8°
